This is the latest recevied weather packets stored in our database for station/object IZ1UQG-1. If no packets are shown the sender has not sent any weather packets the latest 10 day(s).
| Time | Temp. | Humidity | Pressure | Rain* | Wind** | Luminosity | Snow |
|---|---|---|---|---|---|---|---|
| 1778079533 | 14.44° C | 86% | 1008.9 hPa | 180.59 mm | - | - | - |
| 1778079233 | 14.44° C | 86% | 1009 hPa | 203.45 mm | - | - | - |
| 1778078933 | 13.89° C | 86% | 1009 hPa | 182.12 mm | - | - | - |
| 1778078633 | 14.44° C | 86% | 1009.1 hPa | 179.07 mm | - | - | - |
| 1778078333 | 14.44° C | 86% | 1009.1 hPa | 162.56 mm | - | - | - |
| 1778078033 | 13.89° C | 86% | 1009.1 hPa | 171.45 mm | - | - | - |
| 1778077733 | 14.44° C | 86% | 1009.3 hPa | 170.18 mm | - | - | - |
| 1778077433 | 13.89° C | 86% | 1009.4 hPa | 159 mm | - | - | - |
| 1778077133 | 13.89° C | 86% | 1009.4 hPa | 158.5 mm | - | - | - |
| 1778076833 | 13.89° C | 86% | 1009.5 hPa | 157.99 mm | - | - | - |
| 1778076533 | 13.89° C | 86% | 1009.4 hPa | 164.08 mm | - | - | - |
| 1778076233 | 13.89° C | 86% | 1009.5 hPa | 155.7 mm | - | - | - |
| 1778075933 | 13.89° C | 86% | 1009.3 hPa | 135.64 mm | - | - | - |
| 1778075633 | 13.89° C | 86% | 1009.4 hPa | 136.14 mm | - | - | - |
| 1778075333 | 13.89° C | 86% | 1009.3 hPa | 136.14 mm | - | - | - |
| 1778075033 | 13.33° C | 85% | 1009.5 hPa | 128.78 mm | - | - | - |
| 1778074733 | 13.33° C | 85% | 1009.7 hPa | 124.71 mm | - | - | - |
| 1778074433 | 13.33° C | 85% | 1009.7 hPa | 123.19 mm | - | - | - |
| 1778073833 | 12.78° C | 84% | 1009.7 hPa | 115.82 mm | - | - | - |
| 1778073533 | 12.78° C | 84% | 1009.7 hPa | 104.39 mm | - | - | - |
| 1778073233 | 12.78° C | 84% | 1009.8 hPa | 104.9 mm | - | - | - |
| 1778072933 | 12.78° C | 84% | 1009.8 hPa | 93.73 mm | - | - | - |
| 1778072633 | 12.78° C | 84% | 1009.8 hPa | 89.92 mm | - | - | - |
| 1778072333 | 12.78° C | 84% | 1009.7 hPa | 89.92 mm | - | - | - |
| 1778072033 | 12.78° C | 84% | 1009.6 hPa | 86.87 mm | - | - | - |
* Rain latest hour (hover to see other rain measurements)
** Current wind speed in m/s (hover to see current wind gust speed)